User: anonymous   Login
Location: Unspecified
(0.0000°N, 0.0000°E)
Time: 08:33:27
(UTC+02:00)
Language:

Cosmos 1538 Rocket - Orbit

View from above orbital plane
View from above orbital plane
View from above satellite
View from above satellite

Ground track
Ground track

The orbit data is extracted from the following two-line orbital elements,

1 14760U 84019B   15090.49709024  .00000299  00000-0  11232-3 0  9992
2 14760 074.0445 165.1864 0028794 225.5491 234.4461 14.35659367627528
Epoch (UTC): 31 March 2015 11:55:48
Eccentricity: 0.0028794
inclination: 74.0445°
perigee height: 752 km
apogee height: 793 km
right ascension of ascending node: 165.1864°
argument of perigee: 225.5491°
revolutions per day: 14.35659367
mean anomaly at epoch: 234.4461°
orbit number at epoch: 62752

The dashed part of the orbit path shows where the satellite is in the earth's shadow,  

DLR